Kosmos-2287

operational
NORAD ID: 23203 Int'l Des: 1994-050 Owner: VKS Country: RU Constellation: GLONASS
MEOCIRCULAR

关于 Kosmos-2287

正在加载描述...

实时位置

正在加载3D地球...

即将过境

高度历史

Altitude vs Time

uPlot chart will show altitude changes over time

两行轨道根数

1 23203U 94050A 26056.43361112 .00000061 00000-0 00000+0 0 9994
2 23203 65.4187 205.8370 0012656 23.6434 334.9130 2.13101199245461
Epoch: Feb 25, 2026 • Age: 170 hours

当前状态

高度 19101.8 km
速度 3.96 km/s
星下点 34.68°N, 127.17°W
发射日期 Aug 11, 1994
运行时间 31.5 years
类型 other

技术详情

分类 Payload
质量 1300.00 kg
干质量 1200.00 kg
总质量 1300.00 kg
长度 4.00 m
直径 1.50 m
跨度 7.80 m
形状 Cyl + Ant + 2 Pan
制造商 POL
平台类型 Uragan
阶段状态 In Orbit
所有者/国家 VKS/RU

大型星座

Loading constellations...